Tracking 28125 objects as of 2-Oct-2023
HD Live streaming from Space Station
objects crossing your sky now

SL-12 R/B(2)

Track SL-12 R/B(2) now!


NORAD ID: 19094
Int'l Code: 1988-036E
Perigee: 35,451.4 km
Apogee: 35,667.7 km
Inclination: 11.7 °
Period: 1,424.1 minutes
Semi major axis: 41930 km
RCS: 2.2903 m2 (large)
Launch date: May 6, 1988
Source: Commonwealth of Independent States (former USSR) (CIS)
Launch site: TYURATAM MISSILE AND SPACE COMPLEX (TTMTR)

Note: This is a ROCKET BODY
Your satellite tracking list
Your tracking list is empty




NASA's NSSDC Master Catalog

Two Line Element Set (TLE):
1 19094U 88036E   23274.82474885  .00000083  00000-0  00000-0 0  9993
2 19094  11.6739 329.6192 0025792 160.5003   9.2125  1.01113162111822
Source of the keplerian elements: AFSPC